www.pogodaiklimat.ru

Погода и климат >> Архив погоды >> Россия >> Ярославская область >> Рыбинск


АРХИВ ПОГОДЫ в Рыбинске

Время (UTC), дата Ветер
(напр.,м/с)
 
Видим.   Явления Облачность Т
(С)
Тd
(С)
f
(%)
Тe
(С)
Тes
(С)
Комфортность P
(гПа)
Po
(гПа)
Тmin
(С)
Tmax
(С)
R
(мм)
R24
(мм)
S
(см)
00 15.07 штиль 0 4000 м дымка 4/4 300 м
[Sc]
+10.0 +8.9 93 +9 +9 холодно 1011.4 998.6
03 15.07 штиль 0 4000 м дымка 8/8 300 м
[Sc]
+11.7 +10.6 93 +11 +11 холодно 1011.6 999.0 +9.1 3
06 15.07 штиль 0 10 км 8/6 300 м
[Cu med, cong Ac cast]
+16.9 +12.6 76 +17 +20 прохладно 1011.3 998.9
09 15.07 В 1 10 км {ливн. осадки} 8/8 300 м
[Cb cap]
+13.7 +11.9 89 +14 +17 очень
холодно
1011.0 998.5
12 15.07 СЗ 1 10 км слаб. ливневой дождь, в посл. час гроза 8/8 300 м
[Cb cap]
+16.6 +12.1 75 +17 +20 холодно 1011.2 998.8 +19.1 10
15 15.07 штиль 0 10 км 8/0
[Ci ing]
+17.1 +12.1 72 +17 +20 прохладно 1011.0 998.5 +19.1 11
18 15.07 З 1 10 км 6/6 600 м
[Cu med, cong]
+15.3 +12.3 82 +16 +16 прохладно 1011.2 998.7
21 15.07 Ю 1 10 км 4/4 300 м
[Sc]
+12.2 +10.9 92 +12 +12 холодно 1011.3 998.7
00 16.07 штиль 0 10 км 3/3 300 м
[Sc]
+10.2 +9.1 93 +9 +9 холодно 1011.9 999.2
03 16.07 Ю 1 4000 м дымка 4/0
[Ci fib]
+12.0 +10.9 93 +12 +13 холодно 1012.3 999.6 +9.3
06 16.07 В 1 10 км 6/6 300 м
[Cu med, cong]
+18.1 +12.5 70 +19 +23 по сезону 1012.2 999.9
09 16.07 СВ 1 10 км 6/6 300 м
[Cu med, cong]
+21.4 +11.1 52 +23 +30 комфорт 1011.8 999.6
12 16.07 С 1 10 км 8/8 300 м
[Cu med, cong]
+22.6 +11.2 48 +25 +27 комфорт 1011.2 999.1
15 16.07 штиль 0 10 км 10/10 300 м
[Sc]
+19.5 +13.0 66 +21 +21 комфорт 1010.8 998.5 +22.6
18 16.07 В 1 10 км в посл. час ливневой дождь 10/10 300 м
[Sc]
+17.7 +13.0 74 +19 +19 по сезону 1011.0 998.7
21 16.07 ЮВ 1 4000 м слаб. ливневой дождь 10/10 300 м
[Cb cap]
+15.3 +13.3 88 +16 +16 по сезону 1011.2 998.8
00 17.07 ЮВ 2 4000 м слаб. ливневой дождь 10/10 300 м
[Cb cap]
+14.3 +13.1 92 +14 +14 по сезону 1010.7 998.2
03 17.07 В 2 10 км {ливн. осадки} 10/10 300 м
[Sc]
+14.8 +13.5 92 +14 +14 прохладно 1010.2 997.8 +14.2 10
06 17.07 В 2 10 км {ливн. осадки} 10/10 300 м
[Sc]
+16.5 +14.3 87 +17 +17 прохладно 1010.1 997.8
09 17.07 В 1 10 км {ливн. осадки} 8/8 300 м
[Cu med, cong]
+20.8 +16.0 74 +25 +29 комфорт 1009.7 997.5
12 17.07 В 3 10 км гроза, ливневой дождь 6/6 300 м
[Cb calv]
+23.5 +15.0 59 +26 +30 жарко 1008.1 996.0
15 17.07 ЮВ 2
{19}
4000 м слаб. ливневой дождь, в посл. час гроза 10/10 300 м
[Cb cap]
+15.0 +13.4 90 +15 +15 холодно 1009.3 996.8 +23.7 5
18 17.07 В 1 10 км в посл. час ливневой дождь {гроза} 10/10 300 м
[Cb cap]
+15.8 +13.8 88 +16 +16 прохладно 1009.1 996.7
21 17.07 В 2 10 км {ливн. осадки} 10/10 300 м
[Cb cap]
+15.9 +14.3 90 +16 +16 по сезону 1007.8 995.4
00 18.07 В 3 4000 м слаб. ливневой дождь 10/10 300 м
[Cb cap]
+15.8 +14.5 92 +15 +15 по сезону 1005.8 993.4
03 18.07 В 2 4000 м ливневой дождь 10/10 300 м
[Cb cap]
+15.7 +14.6 93 +16 +16 по сезону 1004.2 991.8 +15.0 12
06 18.07 В 3 4000 м слаб. ливневой дождь 10/10 300 м
[Cb cap]
+16.4 +15.4 94 +16 +16 прохладно 1003.8 991.5
09 18.07 В 3 10 км {ливн. осадки} 10/10 300 м
[Cu med, cong]
+19.8 +16.2 80 +22 +22 комфорт 1003.6 991.4
12 18.07 ЮВ 1 10 км в посл. час гроза {ливн. осадки} 10/10 300 м
[Cu med, cong]
+18.8 +16.2 85 +21 +21 комфорт 1004.4 992.2
15 18.07 В 2 10 км 4/4 600 м
[Cu med, cong]
+21.4 +16.6 74 +25 +27 комфорт 1004.0 992.0 +21.8 20
18 18.07 В 2 4000 м гроза, ливневой дождь 10/10 300 м
[Cb calv]
+16.6 +13.9 84 +17 +17 прохладно 1005.0 992.6
21 18.07 ЮВ 1 10 км {гроза, ливн. осадки} 8/8 300 м
[Sc]
+14.4 +12.8 90 +15 +15 прохладно 1005.2 992.7
00 19.07 ЮВ 1 10 км {гроза, ливн. осадки} 4/4 300 м
[Sc]
+13.1 +11.5 90 +13 +13 прохладно 1005.5 992.9
03 19.07 ЮВ 1 10 км 9/9 300 м
[Sc]
+13.8 +12.5 92 +14 +14 прохладно 1005.4 993.0 +12.4 0.6
06 19.07 ЮВ 1 4000 м дымка 10/10 300 м
[Sc]
+14.1 +12.8 92 +14 +14 холодно 1005.3 992.9
09 19.07 ЮВ 1 4000 м слаб. ливневой дождь 10/10 300 м
[Sc]
+17.9 +13.2 74 +19 +19 прохладно 1005.1 992.8
12 19.07 В 3 10 км {ливн. осадки} 10/10 300 м
[Sc]
+17.9 +11.7 67 +18 +18 холодно 1005.1 992.8
15 19.07 В 1 10 км в посл. час ливневой дождь 8/8 300 м
[Sc]
+16.9 +12.6 76 +18 +18 прохладно 1004.9 992.6 +19.1 0.0
18 19.07 штиль 0 10 км в посл. час ливневой дождь 8/8 300 м
[Cu med, cong]
+15.3 +13.7 90 +15 +15 прохладно 1005.5 993.1
21 19.07 штиль 0 10 км {ливн. осадки} 10/10 300 м
[Cu med, cong]
+14.3 +13.0 92 +14 +14 прохладно 1005.5 993.1
00 20.07 штиль 0 10 км {ливн. осадки} 10/10 300 м
[Sc]
+13.1 +12.1 94 +13 +13 прохладно 1006.1 993.5
03 20.07 штиль 0 10 км 10/10 300 м
[Sc]
+13.3 +12.4 94 +13 +13 холодно 1006.5 994.1 +12.7 4
06 20.07 Ю 1 10 км 10/10 300 м
[Sc]
+15.7 +14.1 90 +16 +16 прохладно 1007.3 995.0
09 20.07 З 1 10 км 9/9 300 м
[Cu med, cong]
+17.9 +13.6 76 +19 +21 прохладно 1007.7 995.4
12 20.07 З 1
{11}
10 км в посл. час ливневой дождь 9/9 300 м
[Cu med, cong]
+16.3 +13.4 83 +17 +18 холодно 1009.2 996.8
15 20.07 З 1 4000 м слаб. ливневой дождь 10/10 300 м
[Cb cap]
+16.3 +14.0 86 +17 +17 холодно 1009.5 997.1 +21.7 1
18 20.07 штиль 0 10 км {ливн. осадки} 4/4 600 м
[Cu med, cong]
+15.3 +13.5 89 +15 +15 холодно 1010.2 997.8
21 20.07 З 1 10 км 4/4 600 м
[Cu med, cong]
+14.4 +13.1 92 +15 +15 прохладно 1011.0 998.5
00 21.07 З 1 10 км 10/10 300 м
[Sc]
+15.2 +14.1 93 +16 +16 по сезону 1011.5 999.0
03 21.07 СЗ 2 10 км 6/6 300 м
[Cu med, cong]
+16.4 +14.7 90 +16 +17 по сезону 1012.6 1000.1 +13.9 0.0
06 21.07 СЗ 2 10 км 10/10 300 м
[Sc]
+17.8 +14.9 83 +18 +18 по сезону 1013.4 1001.0
09 21.07 СЗ 3 10 км 6/6 300 м
[Cu med, cong]
+18.6 +12.1 66 +19 +24 прохладно 1014.5 1002.1
12 21.07 С 3
{10}
10 км 8/8 300 м
[Cu med, cong]
+19.3 +11.8 62 +21 +22 комфорт 1015.8 1003.5
15 21.07 С 1 10 км 10/4 300 м
[Sc Ci fib]
+19.7 +11.7 60 +22 +24 комфорт 1015.8 1003.5 +19.9
18 21.07 ЮЗ 1 10 км 6/6 300 м
[Sc]
+16.3 +12.5 78 +17 +17 прохладно 1016.1 1003.6

 

Местоположение метеостанции Рыбинск (Ярославская область, Россия): широта 58.10 долгота 38.68 высота над уровнем моря 105 м.

В архиве по умолчанию представлена погода в Рыбинске за последнюю неделю. Архивные данные за месяц целиком и за предыдущие месяцы, начиная с января 2011 года, Вы можете получить, выбрав интересующий диапазон дат из раскрывающегося списка и нажав кнопку "Ввод!".


*Определитесь, кто Вы:
робот инопланетянин человек

Внимание! Время в таблицах - всемирное. Для получения местного времени необходимо прибавить поправку, которая равна 3 ч.

Смотрите также архив погоды в соседних городах и на ближайших метеорологических станциях:

Погода в Борке (Ярославская область, Россия) (26 км)
Погода в Мышкине (Ярославская область, Россия) (38 км)
Погода в Большом Селе (Ярославская область, Россия) (45 км)
Погода в Пошехонье (Ярославская область, Россия) (50 км)
Погода в Брейтово (Ярославская область, Россия) (53 км)
Погода в Тутаеве (Ярославская область, Россия) (55 км)
Погода в Угличе (Ярославская область, Россия) (70 км)
Погода в Данилове (Ярославская область, Россия) (89 км)
Погода в Ярославле-Музее (Ярославская область, Россия) (89 км)
Погода в Ярославле (Ярославская область, Россия) (89 км)

Пояснения к столбцам:

Ветер - указаны скорость ветра в м/с - средняя за 10 мин, порывы в срок и между сроками (в фигурных скобках) и направление, откуда дует ветер: С - северный, СВ - северо-восточный, В - восточный, ЮВ - юго-восточный, Ю - южный, ЮЗ - юго-западный, З - западный, СЗ - северо-западный.
Видимость - горизонтальная дальность видимости в метрах или километрах. При видимости от 1 до 10 км при отсутствии осадков обычно наблюдается дымка, при ухудшении видимости до 1 км и менее - туман. В сухую погоду видимость может ухудшаться дымом, пылью или мглою.
Явления - указаны атмосферные явления, наблюдавшиеся в срок или в последний час перед сроком; фигурными скобками обозначены явления, наблюдавшиеся между сроками (за 1-3 часа до срока); квадратными скобками обозначены град или гололедные отложения с указанием их диаметра в мм.
Облачность - указаны через наклонную черту общая и нижняя облачность в баллах и высота нижней границы облаков в метрах; квадратными скобками обозначены формы облаков: Ci - перистые, Cs - перисто-слоистые, Cc - перисто-кучевые, Ac - высококучевые, As - высокослоистые, Sc - слоисто-кучевые, Ns - слоисто-дождевые, Cu - кучевые, Cb - кучево-дождевые. Подробнее классификацию облаков см. в Атласе облаков (PDF).
T - Температура воздуха - температура, измеренная на высоте 2 м над землей.
Td - Температура точки росы - температура, при понижении до которой содержащийся в воздухе водяной пар достигнет насыщения.
f - Относительная влажность воздуха - влажноcть воздуха, измеренная на высоте 2 м над землей.
Te - Эффективная температура - температура, которую ощущает одетый по сезону человек в тени. Характеристика душности погоды. При расчете учитывается влияние влажности воздуха и скорости ветра на теплоощущения человека.
Tes - Эффективная температура на солнце - температура, которую ощущает человек, с поправкой на солнечный нагрев. Характеристика знойности погоды. Зависит от высоты солнца над горизонтом, облачности и скорости ветра. Ночью, в пасмурную погоду, а также при ветре 12 м/с и более поправка равна нулю.
P - Атмосферное давление - приведенное к уровню моря атмосферное давление.
Po - Атмосферное давление - измеренное на уровне метеостанции атмосферное давление.
Tmin - Минимальная температура - минимум температуры воздуха на высоте 2 м над землей.
Tmax - Максимальная температура - максимум температуры воздуха на высоте 2 м над землей.
R - Количество осадков - Количество выпавших осадков за период времени, мм. При наведении курсора мыши на число - период времени, за который выпало указанное количество осадков.
R24 - Количество осадков - Количество выпавших осадков за 24 часа, мм.
S - Снежный покров - Высота снежного покрова, см. При наведении курсора мыши на число - состояние снежного покрова и степень покрытия местности в баллах.